This is the latest recevied weather packets stored in our database for station/object K5OLV. If no packets are shown the sender has not sent any weather packets the latest 10 day(s).
| Time | Temp. | Humidity | Pressure | Rain* | Wind** | Luminosity | Snow |
|---|---|---|---|---|---|---|---|
| 1777924007 | 22.78° C | 54% | 1011.9 hPa | 0 mm | - | 401 W/m² | - |
| 1777923702 | 22.22° C | 56% | 1012.1 hPa | 0 mm | - | 453 W/m² | - |
| 1777923399 | 22.78° C | 57% | 1012.1 hPa | 0 mm | - | 336 W/m² | - |
| 1777923097 | 23.33° C | 51% | 1011.9 hPa | 0 mm | - | 489 W/m² | - |
| 1777922795 | 23.33° C | 54% | 1012.3 hPa | 0 mm | - | 586 W/m² | - |
| 1777922493 | 23.33° C | 52% | 1012.2 hPa | 0 mm | - | 629 W/m² | - |
| 1777922191 | 22.22° C | 54% | 1012.3 hPa | 0 mm | - | 683 W/m² | - |
| 1777921887 | 22.22° C | 58% | 1012.4 hPa | 0 mm | - | 542 W/m² | - |
| 1777921583 | 22.22° C | 57% | 1012.5 hPa | 0 mm | - | 482 W/m² | - |
| 1777921280 | 22.22° C | 56% | 1012.4 hPa | 0 mm | - | 500 W/m² | - |
| 1777920976 | 22.22° C | 58% | 1012.5 hPa | 0 mm | - | 445 W/m² | - |
| 1777920673 | 22.78° C | 54% | 1012.7 hPa | 0 mm | - | 749 W/m² | - |
| 1777920369 | 22.22° C | 53% | 1012.8 hPa | 0 mm | - | 753 W/m² | - |
| 1777920064 | 22.78° C | 53% | 1013 hPa | 0 mm | - | 753 W/m² | - |
| 1777919762 | 23.89° C | 52% | 1012.8 hPa | 0 mm | - | 751 W/m² | - |
| 1777919459 | 23.33° C | 51% | 1013 hPa | 0 mm | - | 744 W/m² | - |
| 1777919156 | 23.89° C | 52% | 1013 hPa | 0 mm | - | 783 W/m² | - |
| 1777918854 | 22.22° C | 56% | 1013 hPa | 0 mm | - | 721 W/m² | - |
| 1777918550 | 21.67° C | 57% | 1013.2 hPa | 0 mm | - | 691 W/m² | - |
| 1777918249 | 22.22° C | 56% | 1013.3 hPa | 0 mm | - | 229 W/m² | - |
| 1777917947 | 21.67° C | 56% | 1013.2 hPa | 0 mm | - | 744 W/m² | - |
| 1777917646 | 22.78° C | 55% | 1013.4 hPa | 0 mm | - | 672 W/m² | - |
| 1777917343 | 22.22° C | 55% | 1013.3 hPa | 0 mm | - | 747 W/m² | - |
| 1777917040 | 22.22° C | 55% | 1013.3 hPa | 0 mm | - | 716 W/m² | - |
| 1777916738 | 21.67° C | 57% | 1013.4 hPa | 0 mm | - | 743 W/m² | - |
* Rain latest hour (hover to see other rain measurements)
** Current wind speed in m/s (hover to see current wind gust speed)